Weather Roundup
Issued by NWS

Home | Current Version | Previous Version | Graphics & Text | Print | Product List | Glossary Off
Versions: 1 2 3 4 5 6 7 8 9 10 11 12 13 14 15 16 17 18 19 20 21 22 23 24 25 26 27 28 29 30 31 32 33 34 35 36 37 38 39 40 41 42 43 44 45 46 47 48 49 50

000
NZUS93 KARX 200559
HRRWXR

CURRENT HOURLY OBSERVATIONS ACROSS
MUCH OF THE UPPER MISSISSIPPI VALLEY
NATIONAL WEATHER SERVICE LA CROSSE WI
1200 AM CST MON FEB 20 2017


...SOUTHEAST MINNESOTA...


CITY           SKY/WX    TMP DP  RH WIND       PRES   REMARKS
ROCHESTER      CLOUDY    47  40  76 S13       29.93S
ROCHESTER/MAYO FAIR      50  40  68 SE12      29.93S
WINONA         CLOUDY    45  36  70 CALM      29.97R
AUSTIN         CLOUDY    48  43  81 SE9       29.91S
ALBERT LEA     CLOUDY    48  43  81 SE12      29.89S
DODGE CENTER   NOT AVBL
PRESTON        CLOUDY    48  38  69 SE9       29.95S
OWATONNA       CLOUDY    52  43  71 SE16      29.88S
FARIBAULT      CLOUDY    52  43  71 SE12G18   29.88R
$$

...ELSEWHERE IN MINNESOTA...


CITY           SKY/WX    TMP DP  RH WIND       PRES   REMARKS
MINNEAPOLIS    MOCLDY    49  38  65 SE9       29.87S
INTNL FALLS    PTCLDY    40  28  62 SE13      29.85F WCI  32
DULUTH         CLOUDY    37  31  78 E15       29.92F WCI  28
RED WING       PTCLDY    52  36  54 SE9       29.92R
REDWOOD FALLS  CLOUDY    52  46  80 S17       29.77S
MANKATO          N/A     52  44  74 SE15      29.84R
WORTHINGTON    CLOUDY    51  47  86 S18       29.78S
FAIRMONT       CLOUDY    51  45  79 S17       29.83S
$$

...SOUTHWEST WISCONSIN...


CITY           SKY/WX    TMP DP  RH WIND       PRES   REMARKS
LA CROSSE      CLOUDY    46  36  68 S5        29.98S
PRAIRIE DU CHI MOCLDY    49  36  61 E5        29.99S
BOSCOBEL       CLOUDY    46  35  65 CALM      30.02R
LONE ROCK      NOT AVBL
PLATTEVILLE    CLOUDY    45  37  73 E9        30.03R
FORT MC COY    CLOUDY    45  37  71 CALM      30.01S
MAUSTON-NEW LI CLOUDY    43  36  75 SE3       30.03S
VIROQUA        FAIR      49  37  61 SE10      30.00S
WIS DELLS      CLOUDY    48  36  63 SE7       30.05S
$$

...ELSEWHERE IN WISCONSIN...


CITY           SKY/WX    TMP DP  RH WIND       PRES   REMARKS
MILWAUKEE      CLOUDY    38  32  79 NW3       30.13S
MADISON        PTCLDY    45  34  65 MISG      30.07R
GREEN BAY      CLOUDY    35  31  85 E3        30.14R
EAU CLAIRE     NOT AVBL
BLACK RVR FLS  FAIR      36  30  80 CALM      30.00S
MEDFORD        MOCLDY    44  32  63 SE9G17    30.01F
WAUSAU         PTCLDY    40  32  73 SE13      30.06S WCI  32
WIS RAPIDS     CLOUDY    43  34  70 E8        30.06S
MARSHFIELD     CLOUDY    43  33  68 SE7       30.03S
RICE LAKE      MOCLDY    46  33  60 SE6       29.96S
$$

...NORTHEAST IOWA...


CITY           SKY/WX    TMP DP  RH WIND       PRES   REMARKS
WATERLOO       CLOUDY    50  42  74 SE8       29.95R
DUBUQUE        CLOUDY    51  42  71 SE13      30.02R
DECORAH        CLOUDY    50  41  71 SE12      29.96R
MASON CITY     CLOUDY    48  43  82 SE14      29.91S
CHARLES CITY   MOCLDY    50  46  87 SE14      29.93S
OELWEIN        CLOUDY    46  45  93 SE12      29.97S
$$

...ELSEWHERE IN IOWA...


CITY           SKY/WX    TMP DP  RH WIND       PRES   REMARKS
DES MOINES     CLOUDY    58  46  64 SE9       29.90R
IOWA CITY      CLOUDY    52  45  77 SE6       29.99S
FORT DODGE     PTCLDY    57  45  62 SE9       29.87S
MARSHALLTOWN   CLOUDY    52  46  80 SE10      29.92R
CEDAR RAPIDS   CLOUDY    56  48  74 S12       29.96R
$$

...NORTHERN ILLINOIS...


CITY           SKY/WX    TMP DP  RH WIND       PRES   REMARKS
CHICAGO-OHARE  CLOUDY    45  31  58 E3        30.11S
CHICAGO-MIDWAY MOCLDY    49  36  61 SE5       30.12R
MOLINE         CLOUDY    55  46  71 SE6       30.01R
ROCKFORD       MOCLDY    48  40  73 SE7       30.09S
PEORIA         PTCLDY    53  49  86 SE7       30.07S
$$

NOTE: "FAIR" INDICATES FEW OR NO CLOUDS BELOW 12,000 FEET WITH NO
SIGNIFICANT WEATHER AND/OR OBSTRUCTIONS TO VISIBILITY. WIND
SPEEDS ARE IN MILES-PER-HOUR.




USA.gov is the U.S. government's official web portal to all federal, state and local government web resources and services.